Location: Newark
(33.6333°S, 78.8500°W)
Time: 02:57:04
(UTC+00:00)

Courier 1B - Pass Details

Date: 24 September 2019
Orbit: 962 x 1209 km, 28.3° (Epoch: 15 October)

Event Time Altitude Azimuth Distance (km) Brightness Sun altitude
Rises 02:20:02 0° 269° (W) 3,944 11.4 -38.1°
Reaches altitude 10° 02:23:08 10° 278° (W) 2,943 10.5 -38.6°
Enters shadow 02:26:23 24° 297° (WNW) 2,048 9.3 -39.2°
Maximum altitude 02:29:28 34° 340° (NNW) 1,648 - -39.7°
Drops below altitude 10° 02:35:28 10° 42° (NE) 2,776 - -40.7°
Sets 02:38:19 0° 51° (NE) 3,694 - -41.2°
